User: anonymous   Login
Location: Unspecified
(0.0000°N, 0.0000°E)
Time: 18:05:54
(UTC+00:00)
Language:

PAYLOAD E - Orbit

View from above orbital plane
View from above orbital plane
View from above satellite
View from above satellite

Ground track
Ground track

The orbit data is extracted from the following two-line orbital elements,

1 27059U 01058E   19017.09007715  .00000014  00000-0  21212-4 0  9991
2 27059  82.5416 146.7870 0000842 209.8760 150.2280 12.61486388785342
Epoch (UTC): 17 January 2019 02:09:42
Eccentricity: 0.0000842
inclination: 82.5416°
perigee height: 1416 km
apogee height: 1417 km
right ascension of ascending node: 146.7870°
argument of perigee: 209.8760°
revolutions per day: 12.61486388
mean anomaly at epoch: 150.2280°
orbit number at epoch: 78534

The dashed part of the orbit path shows where the satellite is in the earth's shadow,  

DLR